Location: Greenhawk Observatory
(37.3417°N, 122.0298°W)
Time: 01:26:20
(UTC-07:00)

Daily predictions for brighter satellites

Satellite Brightness Start Highest point End
(mag) Time Altitude Azimuth Time Altitude Azimuth Time Altitude Azimuth
Cosmos 2239 Rocket 4.3 00:00:16 10° N 00:06:28 83° W 00:06:31 83° WSW
SL-16 R/B 2.5 00:02:00 10° NNW 00:07:17 61° NE 00:07:17 61° NE
Terra 3.6 00:08:56 23° W 00:08:56 23° W 00:12:15 10° NW
Cosmos 1331 Rocket 4.4 00:08:30 10° NNW 00:12:41 59° NNW 00:12:41 59° NNW
Cosmos 1821 Rocket 4.0 00:09:32 10° NNW 00:15:49 71° W 00:15:56 71° WSW
Cosmos 1110 Rocket 4.5 00:11:29 10° NNW 00:15:44 57° NW 00:15:44 57° NW
CZ-2C R/B 3.6 00:20:17 54° NE 00:20:17 54° NE 00:25:17 10° N
ALOS 2 4.1 00:21:51 34° NNE 00:21:51 34° NNE 00:24:35 10° N
Cosmos 1727 Rocket 4.1 00:28:15 64° ENE 00:28:15 64° ENE 00:33:57 10° NNE
SeaSat 1 3.3 00:33:27 47° NNE 00:33:27 47° NNE 00:37:28 10° NNW
Lacrosse 5 2.7 00:35:59 48° NNW 00:35:59 48° NNW 00:40:15 10° NNE
Cosmos 1605 Rocket 3.9 00:32:28 10° N 00:38:09 78° NNW 00:38:09 78° NNW
Meteor 2-15 4.5 00:40:21 73° NE 00:40:21 73° NE 00:45:51 10° N
USA 267 3.4 00:34:23 10° NE 00:40:52 68° NW 00:42:34 50° WSW
Cosmos 2251 Rocket 4.4 00:42:35 42° WNW 00:42:35 42° WNW 00:47:30 10° N
Meteor 2-5 Rocket 4.0 00:45:12 67° NW 00:45:12 67° NW 00:50:41 10° N
Cosmos 2360 Rocket 2.8 00:41:14 10° NNW 00:46:21 50° NE 00:46:21 50° NE
Cosmos 1980 Rocket 4.1 00:43:32 10° WNW 00:46:23 18° W 00:46:23 18° W
COSMOS 2428 4.3 00:46:04 10° N 00:50:50 26° ENE 00:51:54 25° ENE
Cosmos 1153 Rocket 4.5 00:45:58 10° N 00:51:52 77° NE 00:51:52 77° NE
NOSS 3-1 (C) 4.0 00:45:31 10° NW 00:53:16 70° WSW 00:53:44 69° SW
Lacrosse 5 rocket 3.1 00:48:46 10° NW 00:51:30 34° NNW 00:51:30 34° NNW
Cosmos 2098 Rocket 4.2 00:49:08 10° NNW 00:52:55 53° NW 00:52:55 53° NW
Cosmos 2322 Rocket 3.1 00:53:42 10° NW 00:57:49 39° WNW 00:57:49 39° WNW
Cosmos 2221 4.4 00:57:33 10° N 00:59:51 26° NNE 00:59:51 26° NNE
Meteor 2-15 Rocket 4.5 01:03:10 73° NNW 01:03:10 73° NNW 01:08:45 10° N
USA 234 4.3 01:08:35 15° E 01:13:37 42° NE 01:19:40 10° NNW
Cosmos 1459 Rocket 4.1 01:09:46 10° N 01:15:58 71° ENE 01:15:58 71° ENE
CZ-2C R/B 3.6 01:11:14 10° N 01:16:13 40° WNW 01:16:13 40° WNW
Meteor 1-24 Rocket 4.2 01:20:52 56° WNW 01:20:52 56° WNW 01:26:24 10° N
Cosmos 2333 Rocket 4.1 01:18:34 10° N 01:23:00 23° NE 01:25:16 18° E
ATLAS 2AS CENTAUR R/B 3.9 01:18:54 10° NNW 01:26:29 42° NE 01:31:13 21° ESE
NOSS 3-1 (A) 4.2 01:19:03 10° NW 01:26:41 58° WSW 01:26:41 58° WSW
Cosmos 2297 Rocket 4.3 01:27:30 15° E 01:27:30 15° E 01:29:56 10° ENE
Cosmos 2219 Rocket 3.6 01:24:43 10° N 01:29:43 31° ENE 01:31:03 28° E
Cosmos 1802 Rocket 3.9 01:30:41 10° N 01:36:39 82° N 01:36:39 82° N
Cosmos 2016 Rocket 4.0 01:33:05 10° N 01:39:27 77° ENE 01:39:27 77° ENE
Meteor 2-17 Rocket 4.5 01:34:09 10° N 01:39:46 73° NW 01:39:46 73° NW
Cosmos 2100 Rocket 4.1 01:34:30 10° NNW 01:40:07 64° WNW 01:40:07 64° WNW
Cosmos 2237 Rocket 4.0 01:44:56 10° N 01:49:33 25° ENE 01:52:19 18° E
SL-16 R/B 4.4 01:47:51 10° WNW 01:49:08 13° WNW 01:49:08 13° WNW
Cosmos 407 Rocket 3.9 01:58:47 60° NNE 01:58:47 60° NNE 02:03:00 10° NNE
ATLAS 3B CENTAUR R/B 4.4 01:33:17 10° WSW 01:59:51 58° S 02:09:18 10° ESE
Cosmos 2061 Rocket 4.3 01:54:00 10° NNW 01:59:38 54° WNW 01:59:38 54° WNW
H-2A R/B 3.8 01:57:28 10° N 02:00:16 39° N 02:00:16 39° N
Cosmos 2227 Rocket 2.9 02:04:40 43° E 02:04:40 43° E 02:09:35 10° NE
Cosmos 2228 Rocket 4.3 02:00:03 10° N 02:03:32 39° NE 02:03:32 39° NE
Cosmos 2123 Rocket 3.9 02:04:52 81° WNW 02:04:52 81° WNW 02:11:02 10° N
ISS -0.5 02:02:31 10° NNW 02:02:45 11° NNW 02:02:45 11° NNW
Cosmos 676 Rocket 4.2 02:16:11 72° NNE 02:16:11 72° NNE 02:20:55 10° NNE
Cosmos 2233 Rocket 4.1 02:13:56 10° N 02:20:15 69° E 02:21:09 61° SE
CZ-2D R/B 4.1 02:21:55 10° NE 02:25:19 17° E 02:26:43 16° ESE
Cosmos 2219 4.1 02:28:18 35° WNW 02:28:36 35° WNW 02:33:44 10° N
Cosmos 2360 Rocket 4.2 02:26:21 10° NW 02:28:06 16° WNW 02:28:06 16° WNW
Cosmos 1500 Rocket 4.2 02:31:56 54° NNE 02:31:56 54° NNE 02:35:28 10° N
Cosmos 1725 Rocket 4.2 02:28:34 10° NNW 02:34:43 55° W 02:34:48 55° W
NOSS 0 Rocket 3.9 02:28:57 10° NNW 02:35:11 82° ENE 02:36:23 60° SE
COSMOS 2428 3.6 02:29:51 10° NW 02:33:53 36° WNW 02:33:53 36° WNW
Cosmos 2082 3.6 02:35:30 71° ESE 02:35:37 71° ESE 02:41:13 10° NNE
SL-08 R/B 4.3 02:36:01 38° ESE 02:37:07 43° ENE 02:41:49 10° N
Lacrosse 4 Rocket 3.6 02:39:11 17° E 02:39:11 17° E 02:41:24 10° ENE
Cosmos 1626 3.6 02:44:25 36° NE 02:44:25 36° NE 02:47:01 10° NNE
AQUA 4.3 02:40:04 10° NNE 02:44:42 49° E 02:44:46 49° ESE
Meteor 2-12 Rocket 4.3 02:42:12 10° N 02:48:23 87° E 02:49:32 61° SSE
Cosmos 1900 4.3 02:50:25 79° E 02:50:25 79° E 02:55:16 10° NNE
Meteor 1-11 4.1 02:51:39 73° SSW 02:52:16 87° W 02:58:02 10° N
Cosmos 1515 Rocket 4.2 02:49:18 10° NNW 02:52:40 48° NW 02:52:40 48° NW
Cosmos 1464 Rocket 4.4 02:48:11 10° N 02:54:13 55° E 02:56:56 32° SE
DELTA 2 R/B (1) 3.4 02:55:50 78° SSW 02:56:06 81° SSE 03:01:41 10° ENE
Meteor 1-27 4.3 02:50:35 10° N 02:56:26 82° E 02:57:46 55° SSE
USA 234 3.2 02:55:51 55° SSW 02:56:26 57° SW 03:02:53 10° NW
Cosmos 614 Rocket 3.9 02:58:43 68° W 02:58:57 69° WNW 03:04:11 10° NNE
Cosmos 1140 Rocket 3.8 03:02:03 50° WNW 03:02:17 51° WNW 03:07:22 10° N
Cosmos 1703 3.7 03:03:03 58° NNE 03:03:03 58° NNE 03:06:16 10° N
Aureole 2 Rocket 3.5 02:58:48 10° NNW 03:01:49 48° NNW 03:01:49 48° NNW
ADEOS Rocket 3.8 02:56:15 10° NNE 03:03:46 62° E 03:07:32 32° SSE
Cosmos 2151 3.5 03:04:57 48° NW 03:04:57 48° NW 03:08:24 10° N
IRS-P3 4.0 02:59:08 10° N 03:04:27 75° WNW 03:05:05 66° SW
Cosmos 2333 Rocket 2.5 03:02:02 10° NNW 03:07:13 49° W 03:07:13 49° W
NOSS 2-1 (D) 4.5 03:09:35 34° NW 03:09:35 34° NW 03:13:12 10° NNE
NOSS 2-1 (C) 4.4 03:09:44 34° NW 03:09:44 34° NW 03:13:21 10° NNE
Cosmos 2297 Rocket 2.2 03:09:18 56° WSW 03:10:11 64° WNW 03:15:49 10° NNE
Sich 1 4.2 03:11:32 32° SE 03:12:35 38° E 03:16:38 10° NNE
Cosmos 1633 Rocket 4.5 03:11:33 26° SE 03:12:54 31° E 03:16:45 10° NNE
Cosmos 2219 Rocket 3.1 03:08:33 10° NW 03:12:43 33° W 03:12:43 33° W
Cosmos 1356 4.2 03:14:42 52° NNE 03:14:42 52° NNE 03:17:27 10° N
Cosmos 1980 3.7 03:09:42 10° NNW 03:15:16 57° WSW 03:15:42 56° SW
ATLAS 2AS CENTAUR R/B 3.2 03:10:09 10° NW 03:17:30 44° WSW 03:18:33 41° SW
Cosmos 1850 Rocket 4.0 03:16:51 58° WSW 03:17:32 64° WNW 03:22:41 10° NNE
Cosmos 1741 Rocket 4.2 03:23:32 50° WSW 03:24:28 58° WNW 03:29:44 10° N
Cosmos 1151 Rocket 4.0 03:21:37 10° NNW 03:24:47 33° WNW 03:24:47 33° WNW
NPP 4.0 03:22:04 10° N 03:27:16 50° WNW 03:28:22 43° WSW
SL-16 R/B 2.5 03:28:29 23° SSE 03:32:32 85° ENE 03:38:45 10° NNW
ATLAS 5 CENTAUR R/B 4.0 03:31:07 10° SE 03:33:30 15° ESE 03:36:06 10° ENE
Cosmos 2237 Rocket 2.5 03:28:28 10° NW 03:33:44 42° WSW 03:34:04 42° WSW
SL-16 R/B 2.2 03:29:57 10° NNW 03:35:41 80° ENE 03:41:04 11° SSE
ADEOS 3.5 03:33:22 10° NNE 03:38:37 81° ESE 03:40:42 38° S
Cosmos 1570 Rocket 4.1 03:38:05 10° NNW 03:43:20 58° WSW 03:45:04 39° SSW
Resurs 1-4 Rocket 2.0 03:38:22 10° N 03:43:42 81° WNW 03:45:49 38° SSW
Cosmos 2058 4.5 03:44:37 21° WNW 03:44:37 21° WNW 03:47:33 10° NNW
ARIANE 5 R/B 2.4 03:42:05 10° N 03:47:11 81° WNW 03:49:09 38° SSW
Cosmos 2227 Rocket 3.6 03:46:29 20° W 03:48:27 25° WNW 03:53:02 10° N
UNK 3.7 03:51:15 39° SSW 03:52:47 62° W 03:57:22 10° NNW
Cosmos 2034 Rocket 4.0 03:46:52 10° NNW 03:53:10 67° W 03:57:03 25° S
Cosmos 1707 Rocket 3.5 03:49:57 10° NNW 03:54:18 68° W 03:55:50 39° SSW
CZ-3B DEB 4.5 03:46:15 25° SW 03:56:00 81° NW 04:10:21 10° NE
Cosmos 1816 Rocket 4.5 03:53:11 25° S 03:57:08 88° W 04:03:33 10° N
COBE Rocket 4.0 03:52:39 10° N 03:57:10 51° WNW 03:58:37 36° SW
USA 161 3.6 04:00:37 12° ESE 04:01:29 15° ENE 04:02:45 10° NNE
MOZ.5/SAFIR/RUBIN 5/SL-8 4.2 03:57:33 10° SSE 04:02:15 66° ENE 04:07:00 10° N
Cosmos 2242 Rocket 3.9 03:57:51 10° N 04:02:19 66° E 04:06:34 11° SSE
OAO 3 Rocket 4.1 04:02:58 29° S 04:04:20 34° SSE 04:08:47 10° E
CZ-2D R/B 2.4 04:00:36 10° N 04:05:38 51° WNW 04:08:03 29° SW
Cosmos 1455 3.3 04:02:58 10° NNW 04:06:10 27° W 04:06:10 27° W
Cosmos 1666 Rocket 3.9 04:05:15 35° SW 04:06:35 47° W 04:10:54 10° N
Cosmos 2263 Rocket 3.9 04:03:07 10° SSE 04:07:37 26° ESE 04:12:09 10° NE
GPS 2-04 Rocket1 3.9 04:10:36 26° S 04:10:36 26° S 04:13:24 10° SE
Tsikada Rocket 4.2 04:06:24 26° SSW 04:10:03 59° W 04:16:23 10° N
Cosmos 1862 Rocket 4.3 04:09:06 10° N 04:13:20 53° E 04:17:32 10° SSE
Cosmos 1486 Rocket 4.0 04:11:42 22° SSW 04:15:04 83° ESE 04:20:19 10° NNE
Meteor 2-10 Rocket 4.3 04:11:07 10° N 04:16:00 50° ENE 04:20:54 10° SSE
Cosmos 1933 Rocket 3.7 04:13:14 18° S 04:16:27 76° E 04:20:55 10° N
Lacrosse 4 Rocket 2.3 04:15:32 26° WSW 04:17:04 35° WNW 04:20:58 10° N
Cosmos 1400 Rocket 3.6 04:14:13 13° SSE 04:17:26 47° E 04:21:15 10° NNE
Meteosat 1 Rocket2 4.4 04:17:31 21° S 04:18:04 21° S 04:21:07 10° SE
In-Cosmos 22 Rocket 4.4 04:15:16 11° S 04:20:15 65° E 04:25:30 10° NNE
Cosmos 841 Rocket 4.3 04:16:31 10° N 04:21:42 54° ENE 04:26:49 10° SSE
BREEZE-M DEB 4.3 04:27:10 11° W 04:30:06 20° NW 04:32:01 10° NNE
Cosmos 468 Rocket 4.1 04:25:28 10° NNW 04:30:28 50° WSW 04:35:24 10° S
Cosmos 371 Rocket 3.2 04:25:59 10° NNW 04:30:49 89° E 04:35:36 10° SSE
Cosmos 1869 4.5 04:31:36 10° NW 04:34:54 25° W 04:36:17 21° WSW
DELTA 2 R/B (1) 3.8 04:37:09 10° W 04:42:44 69° N 04:48:16 10° E
ATLAS 3B CENTAUR R/B 3.6 04:33:05 10° W 04:44:42 35° SSW 04:49:38 10° SE
CZ-2D R/B 4.2 04:41:22 10° N 04:45:08 37° WNW 04:47:58 16° SW
USA 102 2.0 04:43:33 10° NNE 04:46:38 77° ESE 04:47:00 46° S
Okean O Rocket 2.3 04:43:39 10° NNE 04:47:55 54° E 04:52:09 10° S
GP-B 3.1 04:46:07 10° N 04:50:35 86° E 04:55:00 10° S
Cosmos 1763 Rocket 3.5 04:45:48 10° NNW 04:50:57 62° WSW 04:56:01 10° S
Cosmos 2285 Rocket 4.1 04:44:46 10° NNW 04:51:07 86° ENE 04:57:25 10° SSE
Cosmos 1470 Rocket 4.2 04:48:13 15° SW 04:51:17 36° WNW 04:55:17 10° N
Cosmos 1818 4.2 04:47:52 10° NNW 04:53:16 62° ENE 04:58:36 10° SE
CZ-4B R/B 3.4 04:48:55 10° NNE 04:53:16 67° ESE 04:57:22 10° S
Cosmos 1503 Rocket 4.0 04:48:59 10° SSW 04:54:18 85° WNW 04:59:35 10° NNE
Cosmos 1814 Rocket 4.4 04:50:09 10° NNW 04:55:11 42° WSW 05:00:11 10° S
MOS 1-B 4.4 04:51:30 10° N 04:57:13 65° WNW 05:02:55 10° SSW
PSLV R/B 3.8 04:53:56 10° N 04:57:56 85° WNW 05:01:49 10° SSW
Cosmos 1634 Rocket 4.2 04:52:40 10° NNW 04:58:36 51° W 05:04:30 10° SSW
Cosmos 1603 3.8 04:53:00 10° NNW 04:58:37 59° WSW 05:04:09 10° S
Cosmos 2279 Rocket 4.0 04:52:41 10° N 04:58:56 89° WSW 05:05:10 10° S
Abrixas rocket 3.4 04:57:18 11° SSW 05:00:08 33° SE 05:03:10 10° ENE
UNKNOWN OBJECT B 4.5 04:58:12 10° NNW 05:01:06 20° WNW 05:03:45 11° WSW
Cosmos 1869 Rocket 4.0 04:58:38 10° S 05:03:04 67° E 05:07:30 10° NNE
NOSS 3-4 (A) 4.4 05:02:44 10° NW 05:09:12 37° WSW 05:16:01 10° S
NOSS 3-4 (C) 4.3 05:02:49 10° NW 05:09:18 38° WSW 05:16:09 10° S
Cosmos 1315 Rocket 2.9 05:09:05 10° SSW 05:13:06 65° W 05:17:06 10° N
USA 215 4.4 05:07:43 10° ENE 05:13:41 37° SE 05:19:35 10° SSW
SL-16 R/B 4.2 05:14:29 10° WSW 05:16:50 12° W 05:19:12 10° WNW
ATLAS 5 CENTAUR R/B 2.1 05:12:57 10° SW 05:17:30 55° NW 05:22:27 10° NNE
SL-16 R/B 4.0 05:17:04 10° WNW 05:18:58 12° W 05:20:52 10° WSW
Cosmos 1354 Rocket 4.4 05:14:47 10° SW 05:19:52 48° WNW 05:25:00 10° N
PSLV R/B 3.5 05:16:00 10° N 05:20:14 74° WNW 05:24:24 10° SSW
Meteor PRIRODA 4.5 05:18:37 10° NNE 05:22:12 52° E 05:25:46 10° S
CZ-4B R/B 3.2 05:17:07 10° NNE 05:22:28 83° WNW 05:27:52 10° SSW
Okean-O 4.4 05:18:44 10° NNE 05:22:44 33° E 05:26:42 10° SSE
Okean 1-7 3.1 05:19:42 10° N 05:23:58 82° E 05:28:13 10° S
